User: anonymous   Login
Location: ?
(35.4064°N, 139.3593°E)
Time: 16:16:58
(UTC+00:00)
Language:

Cosmos 1980 Rocket - Orbit

View from above orbital plane
View from above orbital plane
View from above satellite
View from above satellite

Ground track
Ground track

The orbit data is extracted from the following two-line orbital elements,

1 19650U 88102B   24177.01513417  .00000022  00000-0  35492-4 0  9994
2 19650  71.0005  21.5129 0016240 243.0178 116.9287 14.15980608839022
Epoch (UTC): 25 June 2024 00:21:47
Eccentricity: 0.0016240
inclination: 71.0005°
perigee height: 827 km
apogee height: 851 km
right ascension of ascending node: 21.5129°
argument of perigee: 243.0178°
revolutions per day: 14.15980608
mean anomaly at epoch: 116.9287°
orbit number at epoch: 83902

The dashed part of the orbit path shows where the satellite is in the earth's shadow,  

DLR